Weather History for Patuxent River, MD

Change the Weather History Date:

Wednesday, October 9, 2013

  Actual Average Record
Temperature  
Mean Temperature 60 °F -  
Max Temperature 62 °F 70 °F 93 °F (2007)
Min Temperature 57 °F 50 °F 34 °F (2001)
Degree Days  
Heating Degree Days 6    
Growing Degree Days 10 (Base 50)    
Moisture  
Dew Point 52 °F    
Average Humidity 78    
Maximum Humidity 90    
Minimum Humidity 60    
Precipitation  
Precipitation 0.61 in - - ()
Sea Level Pressure  
Sea Level Pressure 30.22 in    
Wind  
Wind Speed 15 mph (NNE)    
Max Wind Speed 21 mph    
Max Gust Speed 31 mph    
Visibility 8 miles    
Events Rain    
Averages and records for this station are not official NWS values.
T = Trace of Precipitation, MM = Missing Value Source: NWS Daily Summary

Daily Weather History Graph

Daily Weather History Graph

Search for Another Location

Airport:

Trip Planner

Search our weather history database for the weather conditions in past years. The results will help you decide how hot, cold, wet, or windy it might be!

Date:

Astronomy

Oct. 09, 2013 Rise Set
Actual Time 7:08 AM EDT 6:36 PM EDT
Civil Twilight 6:42 AM EDT 7:02 PM EDT
Nautical Twilight 6:11 AM EDT 7:33 PM EDT
Astronomical Twilight 5:41 AM EDT 8:03 PM EDT
Moon 11:58 AM EDT (10/9) 10:11 PM EDT (10/9)
Length of Visible Light 12h 20m
Length of Day
11h 27m
Waxing Crescent, 25% of the Moon is Illuminated
Oct 9
Waxing Crescent
Oct 11
First Quarter
Oct 18
Full
Oct 26
Last Quarter
Nov 3
New

Hourly Weather History & Observations

Time (EDT) Temp. Dew Point Humidity Pressure Visibility Wind Dir Wind Speed Gust Speed Precip Events Conditions
12:52 AM 61.0 °F 48.0 °F 62% 30.25 in 10.0 mi NE 13.8 mph - N/A   Clear
1:52 AM 61.0 °F 46.9 °F 60% 30.24 in 10.0 mi NE 12.7 mph 20.7 mph N/A   Clear
2:52 AM 61.0 °F 46.9 °F 60% 30.23 in 10.0 mi NE 12.7 mph 20.7 mph N/A   Clear
3:52 AM 61.0 °F 48.0 °F 62% 30.22 in 10.0 mi NE 13.8 mph 19.6 mph N/A   Clear
4:52 AM 60.1 °F 48.0 °F 64% 30.24 in 10.0 mi NNE 10.4 mph - N/A   Mostly Cloudy
4:59 AM 60.8 °F 48.2 °F 63% 30.24 in 10.0 mi NE 12.7 mph - N/A   Mostly Cloudy
5:52 AM 59.0 °F 48.9 °F 69% 30.22 in 10.0 mi NNE 13.8 mph 19.6 mph N/A   Mostly Cloudy
6:52 AM 60.1 °F 51.1 °F 72% 30.24 in 10.0 mi NE 12.7 mph - N/A   Overcast
7:52 AM 60.1 °F 52.0 °F 75% 30.24 in 10.0 mi NNE 13.8 mph 19.6 mph N/A   Mostly Cloudy
8:52 AM 60.1 °F 52.0 °F 75% 30.25 in 10.0 mi NNE 13.8 mph - N/A   Overcast
9:52 AM 61.0 °F 52.0 °F 72% 30.26 in 10.0 mi NE 17.3 mph - N/A   Overcast
10:52 AM 61.0 °F 52.0 °F 72% 30.26 in 10.0 mi NNE 13.8 mph 21.9 mph N/A   Overcast
11:11 AM 60.8 °F 51.8 °F 72% 30.25 in 10.0 mi NNE 15.0 mph - 0.00 in Rain Light Rain
11:52 AM 61.0 °F 53.1 °F 75% 30.24 in 10.0 mi NNE 15.0 mph - 0.00 in Rain Light Rain
12:29 PM 60.8 °F 51.8 °F 72% 30.24 in 10.0 mi NNE 16.1 mph 21.9 mph 0.00 in   Overcast
12:52 PM 62.1 °F 53.1 °F 72% 30.25 in 10.0 mi NNE 12.7 mph 19.6 mph 0.00 in Rain Light Rain
1:32 PM 60.8 °F 53.6 °F 77% 30.24 in 10.0 mi NE 13.8 mph 21.9 mph 0.00 in Rain Light Rain
1:52 PM 60.1 °F 55.0 °F 83% 30.24 in 10.0 mi NNE 13.8 mph - 0.01 in Rain Light Rain
2:52 PM 59.0 °F 55.0 °F 87% 30.22 in 5.0 mi NNE 18.4 mph 24.2 mph 0.03 in Rain Rain
3:04 PM 59.0 °F 55.4 °F 88% 30.22 in 5.0 mi NNE 13.8 mph 24.2 mph 0.02 in Rain Rain
3:52 PM 59.0 °F 55.0 °F 87% 30.21 in 4.0 mi NNE 18.4 mph 26.5 mph 0.09 in Rain Light Rain
4:02 PM 59.0 °F 55.4 °F 88% 30.20 in 3.0 mi NNE 17.3 mph 28.8 mph N/A Rain Rain
4:52 PM 57.9 °F 54.0 °F 87% 30.21 in 2.5 mi NNE 16.1 mph 26.5 mph N/A Rain Rain
5:11 PM 57.2 °F 53.6 °F 88% 30.20 in 3.0 mi NNE 17.3 mph 25.3 mph 0.12 in Rain Light Rain
5:29 PM 57.2 °F 53.6 °F 88% 30.21 in 3.0 mi NNE 16.1 mph 24.2 mph 0.26 in Rain Light Rain
5:52 PM 57.9 °F 54.0 °F 87% 30.21 in 3.0 mi NNE 15.0 mph 25.3 mph 0.33 in Rain Rain
6:35 PM 57.2 °F 53.6 °F 88% 30.20 in 4.0 mi NNE 19.6 mph 27.6 mph 0.04 in Rain Light Rain
6:52 PM 57.9 °F 54.0 °F 87% 30.19 in 4.0 mi NNE 19.6 mph 25.3 mph 0.06 in Rain Light Rain
7:52 PM 57.9 °F 53.1 °F 84% 30.18 in 5.0 mi NNE 18.4 mph 28.8 mph 0.02 in Rain Light Rain
8:45 PM 57.2 °F 53.6 °F 88% 30.18 in 7.0 mi NNE 17.3 mph 28.8 mph 0.00 in Rain Light Rain
8:52 PM 57.9 °F 53.1 °F 84% 30.18 in 7.0 mi NNE 20.7 mph 31.1 mph 0.00 in Rain Light Rain
9:38 PM 57.2 °F 53.6 °F 88% 30.17 in 7.0 mi NNE 15.0 mph 26.5 mph 0.00 in Rain Light Rain
9:52 PM 57.9 °F 54.0 °F 87% 30.17 in 7.0 mi NNE 16.1 mph 28.8 mph 0.01 in Rain Light Rain
10:52 PM 57.9 °F 54.0 °F 87% 30.16 in 7.0 mi NNE 15.0 mph 27.6 mph 0.00 in Rain Light Rain
11:52 PM 57.9 °F 55.0 °F 90% 30.15 in 10.0 mi NNE 18.4 mph - 0.06 in Rain Light Rain